Pelly Bay, Nunavut

6:40 PM CST on January 24, 2017 (GMT -0600)
Kugaaruk Climate

Weather History for CNBB - March, 2014

Change the Weather History Date:

Friday, March 14, 2014

  Actual Average Record
Temperature  
Mean Temperature -26 °F -  
Max Temperature -19 °F - - ()
Min Temperature -34 °F - - ()
Degree Days  
Heating Degree Days 92    
Moisture  
Dew Point -34 °F    
Average Humidity 67    
Maximum Humidity 72    
Minimum Humidity 50    
Precipitation  
Precipitation 0.00 in - - ()
Sea Level Pressure  
Sea Level Pressure 30.29 in    
Wind  
Wind Speed 12 mph ()    
Max Wind Speed 21 mph    
Max Gust Speed 23 mph    
T = Trace of Precipitation, MM = Missing Value Source: Averaged Metar Reports

Daily Weather History Graph

Daily Weather History Graph

Search for Another Location

Airport or City:

Trip Planner

Search our weather history database for the weather conditions in past years. The results will help you decide how hot, cold, wet, or windy it might be!

Date:

Astronomy

Mar. 14, 2014 Rise Set
Actual Time 7:24 AM CDT 6:54 PM CDT
Civil Twilight 6:27 AM CDT 7:51 PM CDT
Nautical Twilight 5:19 AM CDT 9:00 PM CDT
Astronomical Twilight 3:59 AM CDT 10:21 PM CDT
Moon 4:43 PM CDT (3/14) 6:46 AM CDT (3/14)
Length of Visible Light 13h 23m
Length of Day
11h 30m
Waxing Gibbous, 96% of the Moon is Illuminated
Mar 14
Waxing Gibbous
Mar 16
Full
Mar 23
Last Quarter
Mar 30
New
Apr 7
First Quarter

Hourly Weather History & Observations

Time (CDT) Temp. Windchill Dew Point Humidity Pressure Visibility Wind Dir Wind Speed Gust Speed Precip Events Conditions
12:00 AM -33.3 °F -53.1 °F -40.9 °F 67% 30.33 in - WSW 6.9 mph - N/A   Unknown
1:00 AM -34 °F - -41 °F 50% 30.33 in - West 10.4 mph - -  
2:00 AM -31.7 °F -59.0 °F -38.9 °F 68% 30.32 in - West 13.8 mph - N/A   Unknown
3:00 AM -31.9 °F -55.9 °F -39.1 °F 68% 30.32 in - West 10.4 mph - N/A   Unknown
4:00 AM -31.9 °F -61.1 °F -39.3 °F 67% 30.32 in - West 16.1 mph - N/A   Unknown
5:00 AM -31.7 °F -54.3 °F -39.1 °F 67% 30.34 in - West 9.2 mph - N/A   Unknown
6:00 AM -31.4 °F -57.5 °F -38.7 °F 67% 30.33 in - West 12.7 mph - N/A   Unknown
7:00 AM -32 °F - -39 °F 52% 30.33 in - West 12.7 mph - -  
7:00 AM -31.5 °F -57.8 °F -38.9 °F 67% 30.33 in - West 12.7 mph - N/A   Unknown
8:00 AM -29.0 °F -55.6 °F -35.9 °F 70% 30.32 in - WSW 13.8 mph - N/A   Unknown
9:00 AM -28.5 °F -54.9 °F -35.5 °F 69% 30.31 in - WSW 13.8 mph - N/A   Unknown
10:00 AM -26.3 °F -50.1 °F -33.3 °F 69% 30.31 in - WSW 11.5 mph - N/A   Unknown
11:00 AM -25.8 °F -49.4 °F -33.2 °F 68% 30.29 in - WSW 11.5 mph - N/A   Unknown
12:00 PM -24.5 °F -52.4 °F -31.7 °F 69% 30.27 in - WSW 17.3 mph - N/A   Unknown
1:00 PM -23 °F - -30 °F 54% 30.26 in - WSW 20.7 mph - -  
1:00 PM -22.7 °F -50.8 °F -29.9 °F 69% 30.26 in - WSW 18.4 mph - N/A   Unknown
2:00 PM -21.8 °F -51.0 °F -28.8 °F 70% 30.25 in - SW 20.7 mph - N/A   Unknown
3:00 PM -21.5 °F -46.8 °F -28.5 °F 70% 30.26 in - WSW 15.0 mph 23.0 mph N/A   Unknown
4:00 PM -20.0 °F -43.2 °F -27.0 °F 70% 30.26 in - West 12.7 mph - N/A   Unknown
5:00 PM -20.9 °F -45.3 °F -28.1 °F 69% 30.26 in - WSW 13.8 mph - N/A   Unknown
6:00 PM -21.6 °F -47.1 °F -28.7 °F 70% 30.25 in - SW 15.0 mph - N/A   Unknown
7:00 PM -23 °F - -30 °F 54% 30.25 in - WSW 15.0 mph - -  
7:00 PM -23.4 °F -50.2 °F -30.1 °F 71% 30.25 in - WSW 16.1 mph - N/A   Unknown
8:00 PM -24.7 °F -51.0 °F -31.4 °F 71% 30.25 in - WSW 15.0 mph - N/A   Unknown
9:00 PM -23.8 °F -52.2 °F -30.3 °F 72% 30.24 in - West 18.4 mph - N/A   Unknown
10:00 PM -25.4 °F -53.6 °F -32.3 °F 70% 30.24 in - WSW 17.3 mph - N/A   Unknown
11:00 PM -24.3 °F -52.2 °F -31.2 °F 70% 30.23 in - WSW 17.3 mph - N/A   Unknown